ECHOSTAR 6

Last updated on May 31, 2018, 12:19 a.m. UTC

1 26402U 00038A   18150.85209906 -.00000128  00000-0  00000+0 0  9990
2 26402   4.8381  65.3431 0001154   4.6306 315.8583  0.98792395 65435
UTC
Height (km)
Latitude
Longitude
Inclination
Orbital Period
UTC large
Height (km)
Speed (km/s)
/
Latitude / Longitude
Inclination (degrees)
Orbital Period (minutes)
Azimuth
Elevation
Range (km)
Doppler Factor
iOS Compass Heading
iOS Angle

Next 30 passes for location: Hong Kong

Rise time Rise Azimuth (degrees) Set time Set Azimuth (degrees) Duration Max altitude (degrees)

No matching passes for this satellites